HB9HUT-13 Weather Reports


Display with metric or nautical units.
time (UTC)temp
F
wind
direction
speed
MPH
gust
MPH
rain 1hr
in
rain 24hr
in
rain mn
in
humidity
%
barometer
mb
20260502180709 63 0 0.0 0.0 0.00 0.00 0.00 44 848.8
20260502163651 67 0 0.0 0.0 0.00 0.00 0.00 39 848.8
20260502162148 69 0 0.0 0.0 0.00 0.00 0.00 37 849.0
20260502160645 74 0 0.0 0.0 0.00 0.00 0.00 33 849.1
20260502152136 74 0 0.0 0.0 0.00 0.00 0.00 34 849.4
20260502150633 74 0 0.0 0.0 0.00 0.00 0.00 35 849.5
20260502130609 75 0 0.0 0.0 0.00 0.00 0.00 35 850.6
20260502123603 77 0 0.0 0.0 0.00 0.00 0.00 38 850.9
20260502122100 77 0 0.0 0.0 0.00 0.00 0.00 37 851.0
20260502120557 75 0 0.0 0.0 0.00 0.00 0.00 39 851.1
20260502115054 81 0 0.0 0.0 0.00 0.00 0.00 39 851.2
20260502113551 80 0 0.0 0.0 0.00 0.00 0.00 40 851.3
20260502112048 80 0 0.0 0.0 0.00 0.00 0.00 39 851.5
20260502110545 76 0 0.0 0.0 0.00 0.00 0.00 41 851.7
20260502105042 75 0 0.0 0.0 0.00 0.00 0.00 41 851.8
20260502103539 75 0 0.0 0.0 0.00 0.00 0.00 41 851.9
20260502102036 76 0 0.0 0.0 0.00 0.00 0.00 42 852.1
20260502100533 72 0 0.0 0.0 0.00 0.00 0.00 42 852.2
20260502090521 71 0 0.0 0.0 0.00 0.00 0.00 44 852.5
20260502070457 63 0 0.0 0.0 0.00 0.00 0.00 44 852.6
20260502064954 61 0 0.0 0.0 0.00 0.00 0.00 44 852.6
20260502063452 60 0 0.0 0.0 0.00 0.00 0.00 45 852.7
20260502061948 58 0 0.0 0.0 0.00 0.00 0.00 45 852.6
20260502060445 56 0 0.0 0.0 0.00 0.00 0.00 46 852.6
20260502054942 54 0 0.0 0.0 0.00 0.00 0.00 47 852.7
20260502053439 52 0 0.0 0.0 0.00 0.00 0.00 48 852.6
20260502051936 51 0 0.0 0.0 0.00 0.00 0.00 48 852.6
20260502050433 50 0 0.0 0.0 0.00 0.00 0.00 48 852.6
20260502044930 50 0 0.0 0.0 0.00 0.00 0.00 49 852.6
20260502043427 50 0 0.0 0.0 0.00 0.00 0.00 49 852.6
20260502040421 50 0 0.0 0.0 0.00 0.00 0.00 49 852.6
20260502034918 50 0 0.0 0.0 0.00 0.00 0.00 48 852.5
20260502033415 50 0 0.0 0.0 0.00 0.00 0.00 49 852.5
20260502031912 50 0 0.0 0.0 0.00 0.00 0.00 48 852.5
20260502030409 50 0 0.0 0.0 0.00 0.00 0.00 49 852.6
20260502024906 50 0 0.0 0.0 0.00 0.00 0.00 48 852.6
20260502023403 50 0 0.0 0.0 0.00 0.00 0.00 48 852.6
20260502021900 50 0 0.0 0.0 0.00 0.00 0.00 47 852.7
20260502020357 50 0 0.0 0.0 0.00 0.00 0.00 47 852.7
20260502014854 51 0 0.0 0.0 0.00 0.00 0.00 47 852.7
20260502013352 51 0 0.0 0.0 0.00 0.00 0.00 48 852.7
20260502011848 51 0 0.0 0.0 0.00 0.00 0.00 47 852.7
20260502010345 51 0 0.0 0.0 0.00 0.00 0.00 47 852.8
20260502004842 51 0 0.0 0.0 0.00 0.00 0.00 47 852.9
20260502003339 51 0 0.0 0.0 0.00 0.00 0.00 47 852.9
20260502001836 51 0 0.0 0.0 0.00 0.00 0.00 46 853.0
20260502000333 51 0 0.0 0.0 0.00 0.00 0.00 47 853.1
20260501234830 51 0 0.0 0.0 0.00 0.00 0.00 47 853.2
20260501233327 52 0 0.0 0.0 0.00 0.00 0.00 47 853.3
20260501231824 52 0 0.0 0.0 0.00 0.00 0.00 47 853.3
20260501230321 52 0 0.0 0.0 0.00 0.00 0.00 47 853.3
20260501224818 52 0 0.0 0.0 0.00 0.00 0.00 46 853.2
20260501223315 53 0 0.0 0.0 0.00 0.00 0.00 46 853.3
20260501221812 53 0 0.0 0.0 0.00 0.00 0.00 46 853.3
20260501220309 53 0 0.0 0.0 0.00 0.00 0.00 45 853.3
20260501214806 54 0 0.0 0.0 0.00 0.00 0.00 47 853.3
20260501213303 54 0 0.0 0.0 0.00 0.00 0.00 47 853.3
20260501211800 54 0 0.0 0.0 0.00 0.00 0.00 46 853.4
20260501210257 55 0 0.0 0.0 0.00 0.00 0.00 46 853.4
20260501204754 55 0 0.0 0.0 0.00 0.00 0.00 46 853.3
20260501203252 56 0 0.0 0.0 0.00 0.00 0.00 45 853.4
20260501201748 57 0 0.0 0.0 0.00 0.00 0.00 44 853.3
20260501200245 58 0 0.0 0.0 0.00 0.00 0.00 44 853.2
20260501194742 58 0 0.0 0.0 0.00 0.00 0.00 43 853.1
20260501193239 59 0 0.0 0.0 0.00 0.00 0.00 43 853.0
20260501191736 60 0 0.0 0.0 0.00 0.00 0.00 42 852.9
20260501190233 61 0 0.0 0.0 0.00 0.00 0.00 42 852.8
20260501184730 63 0 0.0 0.0 0.00 0.00 0.00 41 852.8
20260501183227 64 0 0.0 0.0 0.00 0.00 0.00 41 852.7
20260501181724 65 0 0.0 0.0 0.00 0.00 0.00 40 852.6